Regional Weather Roundup
Issued by NWS Kansas City/Pleasant Hill, MO

Home | Current Version | Previous Version | Text Only | Print | Product List | Glossary On
Versions: 1 2 3 4 5 6 7 8 9 10 11 12 13 14 15 16 17 18 19 20 21 22 23 24 25 26 27
000
ASUS43 KEAX 271910
RWREAX

WEATHER ROUNDUP FOR EASTERN KANSAS AND NORTHWEST MISSOURI
NATIONAL WEATHER SERVICE KANSAS CITY/PLEASANT HILL MO
200 PM CDT MON MAR 27 2017

KSZ040-057-103>105-MOZ028-029-037-043-272000-
...KANSAS CITY METROPOLITAN AREA...

CITY           SKY/WX    TMP DP  RH WIND       PRES   REMARKS
K.C. INTL      DRIZZLE   50  48  93 N14       29.93F
K.C. DOWNTOWN  CLOUDY    51  48  89 N10       29.92S
LEES SUMMIT    CLOUDY    50  48  93 N12       29.92S
OLATHE - IXD   CLOUDY    52  49  89 N16       29.92F
OLATHE - OJC   CLOUDY    50  48  93 N14       29.91F
LAWRENCE       CLOUDY    51  48  89 N14       29.94F

$$

MOZ001>008-011>017-020>025-030>033-038>040-044>046-053-054-272000-
...NORTHERN AND CENTRAL MISSOURI...

CITY           SKY/WX    TMP DP  RH WIND       PRES   REMARKS
ST. JOSEPH     CLOUDY    51  47  86 N9        29.95F
MOSBY          CLOUDY    50  46  87 N12       29.92S
WARRENSBURG    CLOUDY    52  46  82 NW9       29.89S
WHITEMAN AFB   CLOUDY    52  52 100 N10       29.87R
CLINTON        CLOUDY    52  50  93 NW8       29.88S
SEDALIA        CLOUDY    53  50  89 N8        29.88R
WARSAW         NOT AVBL
CHILLICOTHE      N/A     50  47  89 N9        29.92S
KIRKSVILLE       N/A     51  50  96 N9        29.90S

$$

MOZ041-047>049-056>058-063>065-088>090-097-272000-
...EASTERN AND SOUTHERN MISSOURI...

CITY           SKY/WX    TMP DP  RH WIND       PRES   REMARKS
ST. LOUIS INTL CLOUDY    57  53  86 N8        29.83F FOG
SPIRIT OF STL  CLOUDY    55  54  96 NW7       29.83S FOG
COLUMBIA       LGT RAIN  52  52 100 E6        29.84F FOG
JEFFERSON CITY LGT RAIN  57  53  86 NE7       29.83F
ROLLA          CLOUDY    60  56  86 VRB5      29.81S
OSAGE BEACH    CLOUDY   N/A N/A N/A NW8       29.83S
SPRINGFIELD    CLOUDY    61  54  77 W9        29.84S
BRANSON        PTSUNNY   61  55  82 NW9       29.85F
JOPLIN         CLOUDY    54  52  93 NW10      29.90R
WEST PLAINS    CLOUDY    60  55  83 SW8       29.83F

$$

IAZ060-094-KSZ022-034>040-054-083-096-NEZ052-066-093-272000-
...KANSAS...SOUTHEAST NEBRASKA AND IOWA...

CITY           SKY/WX    TMP DP  RH WIND       PRES   REMARKS
TOPEKA         CLOUDY    52  48  86 N9        29.95S
MANHATTAN      CLOUDY    55  47  74 N8        29.95F
EMPORIA        CLOUDY    51  47  86 N8        29.94S
CHANUTE        CLOUDY    53  47  79 N12       29.92F
WICHITA        CLOUDY    51  45  79 N10       29.97S
OMAHA          CLOUDY    50  39  66 N7        29.98F
LINCOLN        CLOUDY    51  41  68 N9        29.99F
LAMONI         CLOUDY    47  45  93 N9        29.93F
DES MOINES     CLOUDY    49  42  77 N8        29.96S

$$





USA.gov is the U.S. government's official web portal to all federal, state and local government web resources and services.